Regional Weather Roundup
Issued by NWS

Home | Current Version | Previous Version | Graphics & Text | Print | Product List | Glossary On
Versions: 1 2 3 4 5 6 7 8 9 10 11 12 13 14 15 16 17 18 19 20 21 22 23 24 25 26 27 28 29 30 31 32 33 34 35 36 37 38 39 40 41 42 43 44 45 46 47 48 49 50
000
ASUS45 KTFX 282304
RWRMT
MONTANA HOURLY WEATHER ROUNDUP
NATIONAL WEATHER SERVICE GREAT FALLS MT
504 PM MDT THU AUG 28 2014

NOTE: "FAIR" INDICATES FEW OR NO CLOUDS BELOW 12000 FEET WITH NO
SIGNIFICANT WEATHER AND/OR OBSTRUCTIONS TO VISIBILITY.

* THESE STATIONS ARE NOT UNDER NWS QUALITY CONTROL. THEY DO NOT
   REPORT WEATHER SUCH AS PRECIPITATION OR FOG.

MTZ001>007-043-290000-
WEST OF THE DIVIDE
CITY           SKY/WX    TMP DP  RH WIND       PRES   REMARKS
KALISPELL      MOCLDY    82  41  23 SW15G20   29.92S
MISSOULA       PTCLDY    84  36  18 W21       29.96S
BUTTE          PTCLDY    81  37  21 W8        30.06F
MULLAN PASS    CLOUDY    63  43  48 SW12G21   30.15S
* LINCOLN      N/A       82  37  20 SW8G19     N/A
* LOOKOUT PASS N/A       69  45  42 SE9G20     N/A
* POLSON       N/A       82  42  24 NW4G10     N/A
* RONAN APT    PTCLDY    84  46  26 SW9        N/A
* SEELEY LAKE  N/A       83  34  17 W8G21      N/A
* THOMP F APT  MOCLDY    75  42  31 S11G20     N/A
$$

MTZ008-052>055-290000-
SOUTHWEST MONTANA
CITY           SKY/WX    TMP DP  RH WIND       PRES   REMARKS
BOZEMAN        CLEAR     84  43  24 CALM      29.98F
DILLON         CLEAR     84  39  20 SW15      30.04F
W YELLOWSTONE  MOCLDY    68  43  40 S12       30.20S
* THREE FORKS  CLEAR     88  61  40 SW8        N/A   HI  88
* BOULDER HILL N/A       79  36  21 S9G16      N/A
* MONIDA PASS  N/A       72  41  33 SW17       N/A
* RAYNOLDS PAS N/A       71  54  55 S10G24     N/A
* WHITEHALL    N/A       88  44  22 SW7G16     N/A
* WISE RIVER   N/A       79  38  23 W15G23     N/A
$$

MTZ009>010-012-014-046-048-049-054-290000-
EAST SLOPES AND CENTRAL MONTANA
CITY           SKY/WX    TMP DP  RH WIND       PRES   REMARKS
CUT BANK       MOCLDY    77  50  39 E6        29.92F
GREAT FALLS    FAIR      84  41  22 W20G26    29.89F
HELENA         CLEAR     88  37  16 W13G22    29.93F
MALMSTROM AFB  FAIR      86  41  20 W22G28    29.90F
* CONRAD       PTCLDY    82  52  35 NW6        N/A
* EAST GLACIER N/A       71  43  37 W14G29     N/A
* MONARCH      N/A       75  35  23 W14G27     N/A
* PENDROY      N/A       80  46  30 NW6G12     N/A
* ROGERS PASS  N/A       76  31  19 E9G21      N/A
* SAINT MARY   N/A       77  43  30 S7G18      N/A
* SWEET GRASS  N/A       74  51  45 N8         N/A
$$

MTZ011-013-016-021-035-040-045-047-050-051-290000-
NORTH CENTRAL MONTANA
CITY           SKY/WX    TMP DP  RH WIND       PRES   REMARKS
HAVRE          CLEAR     84  52  33 N/A       29.85F
LEWISTOWN      PTCLDY    84  43  24 NW9G17    29.95F
* CHESTER      N/A       82  43  25 W5G11      N/A
* DENTON       N/A       85  41  21 W18G24     N/A
* GEYSER       N/A       84  41  22 W14G20     N/A
* JUDITH GAP   N/A       82  40  22 W10        N/A
* LOMA         N/A       86  46  25 SW1        N/A
$$

MTZ017>020-022>027-061-062-290000-
NORTHEAST MONTANA
CITY           SKY/WX    TMP DP  RH WIND       PRES   REMARKS
GLASGOW        FAIR      88  48  25 NW13      29.81F
GLENDIVE       FAIR      86  52  31 W12       29.84S
JORDAN         CLEAR     88  41  19 W17       29.85F
SIDNEY         CLEAR     88  54  31 NW3       29.80F
WOLF POINT     FAIR      90  48  24 SW10G21   29.80F
* BEAVER HILL  N/A       84  50  31 NW1        N/A
* CIRCLE       N/A       87  55  34 SW7        N/A
* LINDSAY DVD  N/A       85  50  30 W12        N/A
* NAVAJO       N/A       86  49  28 W17G23     N/A
$$

MTZ028>042-056>058-290000-
SOUTHCENTRAL AND SOUTHEAST MONTANA
CITY           SKY/WX    TMP DP  RH WIND       PRES   REMARKS
BAKER          PTCLDY    84  48  29 W8G17     29.89F
BILLINGS       PTCLDY    88  43  21 W14       29.93F
LIVINGSTON     CLEAR     88  37  16 W12G18    29.98F
MILES CITY     PTCLDY    90  46  22 NW9       29.85F
* LAUREL APT   CLEAR     88  43  21 W7         N/A
* ROUNDUP APT  CLEAR     84  43  24 NW5        N/A
* ALZADA       N/A       82  46  28 NW4G9      N/A
* HYSHAM       N/A       86  42  21 NE4G10     N/A
* LAME DEER    N/A       81  43  26 W12G19     N/A
* REED POINT   N/A       88  42  20 NW9G22     N/A
* ROSCOE HILL  N/A       82  28  14 E6G16      N/A
$$

REGIONAL REPORTS...DAKOTAS
CITY           SKY/WX    TMP DP  RH WIND       PRES   REMARKS
WILLISTON      MOCLDY    90  54  29 S10       29.77F
DICKINSON      PTCLDY    84  54  36 NW6       29.84F
BEACH          N/A       82  50  33 W9        29.86F
CROSBY         FAIR      90  50  25 W9G16     29.75F
TIOGA          CLEAR     88  52  29 S10       29.81F
WATFORD CITY   FAIR      88  50  27 W8G16     29.77F
BISMARCK       CLOUDY    75  66  74 SE9       29.86S
GRAND FORKS    MOCLDY    73  66  79 S14       29.86F
FARGO          CLOUDY    70  64  81 SE13      29.89F
BUFFALO SD     MOCLDY    84  46  26 NW6       29.83F
RAPID CITY     CLOUDY    79  52  39 VRB3      29.94F
$$

REGIONAL REPORTS...WYOMING/IDAHO/WASHINGTON
CITY           SKY/WX    TMP DP  RH WIND       PRES   REMARKS
GILLETTE       MOCLDY    82  43  25 N9        29.99F
SHERIDAN       CLEAR     86  43  22 N13       29.97F
CODY           FAIR      81  43  26 SE7       30.04F
YELLOWSTONE LA PTCLDY    70  36  29 N/A       30.29F
SALMON         PTCLDY    79  54  42 CALM      29.95F
MULLAN PASS    CLOUDY    63  43  48 SW12G21   30.15S
SPOKANE        MOCLDY    82  41  23 SW22      29.96F
$$

REGIONAL REPORTS...ALBERTA
CITY           SKY/WX    TMP DP  RH WIND       PRES   REMARKS
LETHBRIDGE     LGT RAIN  59  54  84 N26       29.97F

$$




USA.gov is the U.S. government's official web portal to all federal, state and local government web resources and services.